Location: Newark
(41.6500°N, 71.4833°W)
Time: 18:41:47
(UTC+00:00)

N. Korean satellite - Visible Passes

Search period start: 14 December 2019 00:00
Search period end: 24 December 2019 00:00
Orbit: 455 x 507 km, 97.2° (Epoch: 13 December)

Date Brightness Start Highest point End Pass type
(mag) Time Alt. Az. Time Alt. Az. Time Alt. Az.
14 Dec 9.9 09:39:30 10° ENE 09:41:16 13° E 09:43:00 10° ESE visible
14 Dec 7.1 11:11:37 10° N 11:14:48 33° WNW 11:17:55 10° SW visible
14 Dec 6.6 21:46:22 10° SSE 21:50:04 84° ENE 21:53:45 10° N visible
15 Dec 6.3 10:45:57 10° N 10:49:26 75° WNW 10:52:52 10° SSW visible
15 Dec 10.0 22:56:22 10° WSW 22:58:14 13° W 23:00:06 10° WNW visible
16 Dec 7.6 10:20:36 10° NNE 10:23:59 46° E 10:27:17 10° S visible
16 Dec 9.0 22:29:29 10° SSW 22:32:39 26° W 22:35:47 10° NW visible
17 Dec 9.1 09:55:42 10° NE 09:58:26 21° E 10:01:07 10° SSE visible
17 Dec 7.8 11:29:04 10° NNW 11:31:43 21° WNW 11:34:20 10° WSW visible
17 Dec 7.4 22:03:30 10° S 22:07:07 56° W 22:10:44 10° NNW visible
18 Dec 10.1 09:32:15 10° E 09:32:47 10° E 09:33:19 10° E visible
18 Dec 6.8 11:03:07 10° N 11:06:25 42° WNW 11:09:41 10° SW visible
19 Dec 6.5 10:37:33 10° NNE 10:41:02 83° ESE 10:44:26 10° S visible
19 Dec 9.8 22:47:24 10° SW 22:49:47 17° W 22:52:11 10° NW visible
20 Dec 8.1 10:12:19 10° NNE 10:15:32 35° E 10:18:42 10° SSE visible
20 Dec 8.6 22:20:53 10° SSW 22:24:13 33° W 22:27:32 10° NNW visible
21 Dec 9.5 09:47:37 10° NE 09:49:57 17° E 09:52:15 10° SE visible
21 Dec 7.5 11:20:27 10° NNW 11:23:21 25° WNW 11:26:13 10° SW visible
21 Dec 6.9 21:55:05 10° S 21:58:43 73° WSW 22:02:20 10° NNW visible
22 Dec 6.5 10:54:37 10° N 10:58:01 55° WNW 11:01:21 10° SSW visible
23 Dec 6.9 10:29:09 10° NNE 10:32:35 63° E 10:35:58 10° S visible
23 Dec 9.5 22:38:34 10° SW 22:41:20 20° W 22:44:05 10° NW visible
